ROMMA est une association bénévole à but non lucratif. Votre soutien est indispensable : ADHERER à ROMMA ou FAIRE un DON

Montélimar - (26, Drôme)

Basse vallée du Rhône (88 m)   Longitude: 04° 45' E   Latitude: 44° 32' N Station partenaire n°164
 

Détail journalier du     <<     >>

Température Precipitation Humidité Pression Vent Dir Rafale Dir. rafale Ensol.
Heure (°C) (mm) (%) (hPa) (km/h) (km/h) (min)
01:00 18.4071101300---0
02:00 18.3073101400---0
03:00 17.9075101400---0
04:00 18.0074101400---0
05:00 17.7078101400---0
06:00 17.3080101400---0
07:00 17.1080101400---0
08:00 16.9082101500---0
09:00 17.2081101500---37
10:00 18.0079101600---11
11:00 20.4072101600---24
12:00 23.20601016010N58
13:00 24.205410165NE21NE58
14:00 25.105210154NNE19NE47
15:00 25.905010154NNE16NE56
16:00 26.105110143NNE18NE41
17:00 26.405110141---18NE25
18:00 26.70501014010NE22
19:00 25.7052101406NE0
20:00 23.9060101400---0
21:00 21.8069101500---0
22:00 20.1075101500---0
23:00 19.7077101500---0
minuit 19.4079101600---0

Graphique du 26-09-2019

 

Serveur OMMA